Location: Smithsonian NASM Public Observatory
(38.8879°N, 77.0185°W)
Time: 20:02:37
(UTC-04:00)

Daily predictions for brighter satellites

Satellite Brightness Start Highest point End
(mag) Time Altitude Azimuth Time Altitude Azimuth Time Altitude Azimuth
In-Cosmos 22 4.3 20:56:43 10° S 21:02:28 78° E 21:08:14 10° NNE
Cosmos 1980 Rocket 4.1 20:58:59 10° NW 21:03:44 28° WSW 21:08:29 10° SSW
Cosmos 2360 Rocket 2.9 20:59:16 10° N 21:04:35 40° ENE 21:09:52 10° SE
FENGYUN 3A 4.0 21:00:00 10° S 21:05:24 70° WSW 21:10:49 10° NNW
Cosmos 1515 Rocket 3.7 21:02:02 10° N 21:06:25 59° E 21:10:45 10° SSE
SL-16 R/B 2.4 21:01:34 10° NNW 21:07:15 75° WSW 21:12:54 10° SSE
DELTA 2 R/B (1) 3.6 21:05:30 10° W 21:11:04 82° SSW 21:16:38 10° ESE
USA 186 3.2 21:14:21 10° SSW 21:16:16 24° W 21:18:14 10° NW
OAO 2 Rocket 4.4 21:13:49 10° SSW 21:18:14 27° SSE 21:22:40 10° E
Cosmos 2058 4.3 21:16:21 10° SE 21:19:26 21° E 21:22:31 10° NE
Cosmos 1908 3.5 21:15:49 10° N 21:19:38 51° E 21:23:26 10° SSE
Cosmos 1151 Rocket 3.3 21:19:21 10° N 21:23:34 51° E 21:27:46 10° SSE
Cosmos 2266 Rocket 4.1 21:18:23 10° S 21:24:36 64° E 21:30:44 10° NNE
Cosmos 1674 2.7 21:22:54 10° S 21:26:41 65° E 21:30:31 10° NNE
Cosmos 405 3.2 21:24:31 10° N 21:28:06 58° E 21:31:39 10° SSE
ALOS 3.9 21:24:26 10° SSW 21:28:40 34° W 21:32:56 10° NNW
Cosmos 1553 Rocket 4.4 21:23:24 10° NNW 21:29:45 70° W 21:36:00 10° S
H-2A R/B 4.2 21:29:00 10° E 21:31:13 13° ENE 21:33:28 10° NE
Cosmos 2227 Rocket 4.0 21:30:01 10° ESE 21:31:17 11° E 21:32:34 10° E
Cosmos 2315 Rocket 4.5 21:25:41 10° N 21:31:33 43° ENE 21:37:05 11° SSE
CZ-4B R/B 4.4 21:28:00 10° NE 21:32:35 30° E 21:37:04 10° SSE
Cosmos 1805 Rocket 4.5 21:29:23 10° SSE 21:33:17 31° E 21:37:12 10° NNE
Cosmos 1680 Rocket 3.7 21:29:17 10° N 21:34:28 59° ENE 21:39:11 12° SSE
H-2A R/B 4.2 21:33:07 10° S 21:36:25 21° SE 21:45:12 10° E
Cosmos 923 Rocket 4.0 21:33:49 10° NNW 21:39:04 86° ENE 21:44:04 11° SSE
Cosmos 1833 4.5 21:34:19 10° SSW 21:40:01 75° WNW 21:45:43 10° NNE
USA 229 DEB 4.4 21:33:44 10° SW 21:40:33 61° NW 21:47:30 10° NNE
Cosmos 1300 4.0 21:37:23 10° NNE 21:40:39 26° ENE 21:42:49 16° ESE
USA 229 4.4 21:33:49 10° SW 21:40:39 61° NW 21:47:36 10° NNE
YAOGAN 6 3.7 21:38:15 15° SE 21:40:39 29° ENE 21:43:49 10° N
Tiangong 1 1.3 21:38:21 10° SW 21:41:20 44° SSE 21:44:18 10° E
SPOT 1/Viking Rocket 4.4 21:39:09 14° SE 21:43:03 35° ENE 21:47:42 10° N
Cosmos 2333 Rocket 4.1 21:41:16 10° N 21:45:05 18° NE 21:48:52 10° E
Cosmos 1898 Rocket 4.2 21:41:45 10° SSE 21:46:19 32° E 21:50:54 10° NE
Cosmos 1939 Rocket 3.2 21:45:56 10° S 21:49:50 62° WSW 21:53:43 10° NNW
H-2A R/B 2.6 21:45:43 10° S 21:50:12 63° WSW 21:54:42 10° NNW
Cosmos 1707 Rocket 4.2 21:49:02 10° N 21:53:09 39° ENE 21:55:46 20° SE
Cosmos 1437 Rocket 3.8 21:49:51 10° NNW 21:53:28 42° W 21:57:06 10° SSW
Cosmos 1666 Rocket 4.1 21:52:49 17° SSE 21:55:47 39° E 21:59:55 10° NNE
MetOp-A 4.2 21:51:56 15° SSE 21:56:26 70° ENE 22:01:45 10° N
SPOT 5 2.7 21:53:20 14° SSE 21:57:17 88° ENE 22:02:07 10° NNW
COSMOS 2428 3.1 21:51:50 10° NNW 21:57:23 52° ENE 22:01:17 19° SE
Cosmos 2297 Rocket 3.9 21:57:44 13° ESE 21:58:13 13° E 22:00:44 10° ENE
NOSS 3-1 (A) 3.5 21:54:26 10° SSW 22:00:03 53° ESE 22:06:13 10° NE
PSLV R/B 3.2 22:00:36 21° S 22:02:32 80° W 22:05:35 10° NNW
ARGOS 3.6 21:59:31 19° SE 22:03:07 46° ENE 22:08:14 10° N
Cosmos 2219 Rocket 3.3 22:00:38 10° N 22:05:33 31° ENE 22:08:52 18° ESE
Cosmos 304 Rocket 4.1 22:00:52 10° NNW 22:05:38 64° WSW 22:09:26 16° S
Nadezhda 2 Rocket 4.5 22:03:02 10° S 22:09:11 86° W 22:15:19 10° N
Cosmos 2237 4.2 22:13:16 10° NNW 22:19:01 84° ENE 22:22:30 25° SSE
Cosmos 1726 2.1 22:18:14 10° N 22:22:00 66° E 22:23:25 35° SSE
ATLAS 2AS CENTAUR R/B 3.5 22:18:20 20° SSE 22:22:30 34° ESE 22:29:24 10° NE
Envisat 4.2 22:19:41 10° SSW 22:24:24 39° W 22:29:09 10° NNW
CZ-4C R/B 3.8 22:24:04 31° E 22:24:46 35° ENE 22:27:58 10° N
USA 32 4.2 22:21:32 10° N 22:26:42 55° E 22:29:10 29° SSE
Cosmos 2219 3.9 22:23:11 10° SW 22:28:48 56° WNW 22:34:28 10° NNE
Cosmos 292 Rocket 4.1 22:24:15 10° N 22:28:54 51° ENE 22:30:47 32° SE
Landsat 7 4.3 22:27:03 29° SE 22:29:01 46° ENE 22:33:34 10° N
ERBS 4.1 22:32:03 20° ENE 22:32:03 20° ENE 22:33:22 10° ENE
Delta 2 Rocket 3.0 22:28:22 10° W 22:31:47 47° S 22:31:53 47° S
Cosmos 2237 Rocket 3.1 22:31:54 10° N 22:37:11 37° ENE 22:39:42 25° ESE
Cosmos 2333 4.2 22:31:38 10° NNW 22:37:23 88° ENE 22:40:15 31° SSE
ATLAS 3B R/B 4.2 22:33:20 10° NNW 22:39:12 27° NE 22:44:01 13° E
Cosmos 1271 Rocket 2.7 22:35:22 10° N 22:39:13 67° E 22:40:05 49° SE
SL-23 DEB 3.9 22:35:28 10° WNW 22:39:53 52° SW 22:40:32 44° S
Cosmos 2082 4.0 22:38:00 31° SSE 22:40:13 45° ESE 22:45:39 10° NE
Meteor 2-10 4.3 22:34:55 10° N 22:40:35 62° ENE 22:43:04 34° SSE
Cosmos 1703 3.1 22:41:16 45° S 22:42:21 76° E 22:46:15 10° N
SL-14 R/B 3.9 22:40:06 20° SSW 22:42:37 55° W 22:46:33 10° N
Cosmos 1346 4.4 22:45:04 30° NE 22:45:04 30° NE 22:47:02 10° NNE
Meteor 1-4 Rocket 2.5 22:40:59 10° N 22:44:45 88° ENE 22:45:29 56° S
Terra 2.3 22:43:25 35° ESE 22:44:53 47° ENE 22:49:26 10° N
Cosmos 1937 Rocket 3.4 22:41:23 20° SSW 22:45:02 83° ESE 22:50:16 10° NNE
Cosmos 2242 Rocket 3.5 22:40:37 10° N 22:45:07 89° ENE 22:46:44 40° S
NOSS 3-1 (C) 4.1 22:40:59 10° SW 22:46:43 56° NW 22:53:07 10° NNE
Iridium 2 3.6 22:47:14 55° SSE 22:47:57 76° E 22:51:49 10° N
Cosmos 2360 Rocket 3.8 22:43:41 10° NW 22:48:20 27° WSW 22:52:21 13° SSW
NOAA 11 4.3 22:47:19 29° S 22:50:10 71° WSW 22:55:38 10° NNW
Lacrosse 4 Rocket 3.7 22:49:02 10° NNE 22:51:42 15° NE 22:53:24 13° ENE
Sich 1 3.7 22:48:46 19° SSW 22:51:42 52° W 22:56:01 10° N
Cosmos 1862 Rocket 3.9 22:47:45 10° N 22:51:55 45° E 22:52:33 42° ESE
CARTOSAT-1 3.7 22:51:08 46° ESE 22:52:03 57° ENE 22:56:18 10° N
USA 245 4.2 22:53:37 23° W 22:53:37 23° W 22:55:30 10° NW
FALCON 9 R/B 3.9 22:26:37 10° W 22:55:06 72° S 23:00:29 21° ESE
Cosmos 1633 Rocket 3.8 22:52:39 21° SSW 22:55:24 50° W 22:59:40 10° N
Cosmos 990 Rocket 3.8 22:53:44 35° S 22:55:56 74° ESE 23:01:05 10° NNE
DELTA 2 R/B (1) 4.3 22:52:12 10° W 22:57:12 35° SSW 22:58:07 33° S
DELTA 2 DEB (DPAF) 4.2 22:58:33 45° S 22:59:53 76° WSW 23:04:23 10° NNW
Cosmos 1626 2.2 23:01:03 62° E 23:01:03 62° E 23:04:41 10° NNE
OAO 2 Rocket 3.5 22:57:26 10° WSW 23:02:36 52° S 23:03:20 48° SE
COSMOS 2455 3.9 23:02:13 10° NNW 23:07:41 34° NE 23:10:13 25° E
SL-08 RB Rocket 4.4 23:06:50 32° SSW 23:08:22 45° W 23:12:41 10° NNW
H-2A R/B 2.1 23:08:02 44° S 23:09:49 86° WSW 23:15:17 10° NNW
Cosmos 2227 Rocket 2.1 23:11:30 30° SSW 23:14:27 88° WNW 23:20:09 10° NNE
Tiangong 1 2.4 23:14:55 10° W 23:17:12 38° NW 23:17:12 38° NW
Cosmos 1933 4.3 23:15:32 10° N 23:18:58 35° ENE 23:18:58 35° ENE
IGS 5A 3.7 23:29:10 59° WSW 23:29:25 60° W 23:33:33 10° NNW
Cosmos 2333 Rocket 2.3 23:24:12 10° NNW 23:29:56 72° WSW 23:31:18 52° S
Cosmos 192 4.2 23:25:20 10° NNW 23:30:17 84° ENE 23:30:50 70° SE
SL-16 R/B 2.8 23:25:13 10° N 23:30:39 44° ENE 23:32:01 38° E
SeaSat 1 3.7 23:29:32 26° E 23:30:49 30° NE 23:35:05 10° N
Cosmos 1125 Rocket 3.4 23:33:30 64° SE 23:34:02 69° ESE 23:39:21 10° NNE
Cosmos 1455 3.1 23:35:21 10° NNW 23:38:49 43° W 23:38:49 43° W
Nadezhda 1 Rocket 4.5 23:34:09 10° NNW 23:40:01 52° W 23:42:17 35° SW
Cosmos 2297 Rocket 2.2 23:39:28 41° SW 23:41:30 76° WNW 23:47:11 10° NNE
NOSS 2-3 (D) 4.4 23:46:30 45° E 23:46:30 45° E 23:50:53 10° NE
Okean 1-7 3.9 23:41:57 10° N 23:45:28 39° ENE 23:45:28 39° ENE
Cosmos 2219 Rocket 3.1 23:44:27 10° NW 23:49:29 35° WSW 23:50:35 32° SW
Cosmos 1703 Rocket 3.6 23:48:34 10° N 23:52:36 74° N 23:52:36 74° N
